| time (UTC) | temp F | wind direction | speed MPH | gust MPH | rain 1hr in | rain 24hr in | rain mn in | humidity % | barometer mb |
| 20260503224400 | 58 | 155 | 4.0 | 11.0 | 0.00 | 0.00 | 0.00 | 43 | 1006.7 |
| 20260503223901 | 58 | 202 | 4.0 | 15.0 | 0.00 | 0.00 | 0.00 | 43 | 1006.7 |
| 20260503223400 | 58 | 246 | 4.0 | 15.0 | 0.00 | 0.00 | 0.00 | 44 | 1006.7 |
| 20260503222901 | 58 | 165 | 4.0 | 10.0 | 0.00 | 0.00 | 0.00 | 44 | 1006.8 |
| 20260503222401 | 58 | 131 | 4.0 | 17.0 | 0.00 | 0.00 | 0.00 | 43 | 1006.9 |
| 20260503221901 | 58 | 229 | 4.0 | 17.0 | 0.00 | 0.00 | 0.00 | 43 | 1006.9 |
| 20260503221402 | 58 | 211 | 4.0 | 11.0 | 0.00 | 0.00 | 0.00 | 43 | 1006.9 |
| 20260503220856 | 58 | 291 | 4.0 | 10.0 | 0.00 | 0.00 | 0.00 | 43 | 1006.9 |
| 20260503220350 | 58 | 142 | 4.0 | 14.0 | 0.00 | 0.00 | 0.00 | 43 | 1007.0 |
| 20260503215844 | 58 | 190 | 4.0 | 14.0 | 0.00 | 0.00 | 0.00 | 42 | 1007.0 |
| 20260503215345 | 58 | 324 | 4.0 | 11.0 | 0.00 | 0.00 | 0.00 | 43 | 1007.0 |
| 20260503215117 | 58 | 215 | 3.0 | 10.0 | 0.00 | 0.00 | 0.00 | 42 | 1006.9 |
| 20260503214343 | 58 | 155 | 3.0 | 10.0 | 0.00 | 0.00 | 0.00 | 42 | 1006.8 |
| 20260503214116 | 58 | 217 | 3.0 | 13.0 | 0.00 | 0.00 | 0.00 | 44 | 1006.8 |
| 20260503213343 | 59 | 165 | 3.0 | 14.0 | 0.00 | 0.00 | 0.00 | 41 | 1006.9 |
| 20260503213117 | 59 | 215 | 4.0 | 14.0 | 0.00 | 0.00 | 0.00 | 43 | 1006.9 |
| 20260503212340 | 59 | 150 | 5.0 | 13.0 | 0.00 | 0.00 | 0.00 | 40 | 1006.9 |
| 20260503211841 | 59 | 204 | 5.0 | 11.0 | 0.00 | 0.00 | 0.00 | 40 | 1006.9 |
| 20260503211340 | 60 | 309 | 4.0 | 11.0 | 0.00 | 0.00 | 0.00 | 39 | 1006.8 |
| 20260503210840 | 60 | 275 | 3.0 | 11.0 | 0.00 | 0.00 | 0.00 | 42 | 1006.8 |
| 20260503210340 | 60 | 165 | 3.0 | 9.0 | 0.00 | 0.00 | 0.00 | 40 | 1006.8 |
| 20260503205840 | 60 | 109 | 3.0 | 13.0 | 0.00 | 0.00 | 0.00 | 41 | 1006.8 |
| 20260503205341 | 60 | 155 | 3.0 | 13.0 | 0.00 | 0.00 | 0.00 | 39 | 1006.8 |
| 20260503205114 | 60 | 292 | 3.0 | 10.0 | 0.00 | 0.00 | 0.00 | 40 | 1006.8 |
| 20260503204610 | 60 | 120 | 4.0 | 13.0 | 0.00 | 0.00 | 0.00 | 41 | 1006.9 |
| 20260503204108 | 60 | 228 | 4.0 | 14.0 | 0.00 | 0.00 | 0.00 | 41 | 1006.9 |
| 20260503203337 | 60 | 217 | 4.0 | 14.0 | 0.00 | 0.00 | 0.00 | 40 | 1007.0 |
| 20260503202837 | 60 | 258 | 4.0 | 12.0 | 0.00 | 0.00 | 0.00 | 41 | 1007.0 |
| 20260503202338 | 60 | 194 | 4.0 | 11.0 | 0.00 | 0.00 | 0.00 | 41 | 1007.0 |
| 20260503201836 | 60 | 53 | 4.0 | 13.0 | 0.00 | 0.00 | 0.00 | 40 | 1007.0 |
| 20260503201337 | 60 | 327 | 4.0 | 13.0 | 0.00 | 0.00 | 0.00 | 41 | 1007.1 |
| 20260503200838 | 60 | 355 | 4.0 | 14.0 | 0.00 | 0.00 | 0.00 | 43 | 1007.2 |
| 20260503200338 | 59 | 155 | 4.0 | 14.0 | 0.00 | 0.00 | 0.00 | 44 | 1007.2 |
| 20260503195833 | 58 | 211 | 5.0 | 14.0 | 0.00 | 0.00 | 0.00 | 43 | 1007.3 |
| 20260503195333 | 58 | 171 | 5.0 | 14.0 | 0.00 | 0.00 | 0.00 | 43 | 1007.4 |
| 20260503194833 | 58 | 229 | 5.0 | 18.0 | 0.00 | 0.00 | 0.00 | 42 | 1007.5 |
| 20260503194333 | 58 | 242 | 4.0 | 18.0 | 0.00 | 0.00 | 0.00 | 44 | 1007.7 |
| 20260503193832 | 58 | 56 | 4.0 | 11.0 | 0.00 | 0.00 | 0.00 | 42 | 1007.8 |
| 20260503193335 | 58 | 192 | 3.0 | 10.0 | 0.00 | 0.00 | 0.00 | 42 | 1007.7 |
| 20260503192833 | 58 | 236 | 4.0 | 11.0 | 0.00 | 0.00 | 0.00 | 41 | 1007.7 |
| 20260503192604 | 58 | 321 | 4.0 | 16.0 | 0.00 | 0.00 | 0.00 | 42 | 1007.9 |
| 20260503192105 | 59 | 223 | 5.0 | 16.0 | 0.00 | 0.00 | 0.00 | 40 | 1008.0 |
| 20260503191328 | 59 | 175 | 4.0 | 11.0 | 0.00 | 0.00 | 0.00 | 41 | 1008.0 |
| 20260503191100 | 59 | 198 | 4.0 | 14.0 | 0.00 | 0.00 | 0.00 | 43 | 1008.0 |
| 20260503190328 | 59 | 160 | 4.0 | 14.0 | 0.00 | 0.00 | 0.00 | 43 | 1008.1 |
| 20260503185828 | 59 | 133 | 4.0 | 12.0 | 0.00 | 0.00 | 0.00 | 40 | 1008.2 |
| 20260503185559 | 59 | 173 | 4.0 | 13.0 | 0.00 | 0.00 | 0.00 | 41 | 1008.2 |
| 20260503184829 | 59 | 184 | 5.0 | 13.0 | 0.00 | 0.00 | 0.00 | 39 | 1008.3 |
| 20260503184328 | 59 | 233 | 4.0 | 11.0 | 0.00 | 0.00 | 0.00 | 41 | 1008.3 |
| 20260503183828 | 59 | 195 | 5.0 | 13.0 | 0.00 | 0.00 | 0.00 | 45 | 1008.3 |
| 20260503183330 | 59 | 314 | 5.0 | 15.0 | 0.00 | 0.00 | 0.00 | 40 | 1008.4 |
| 20260503182826 | 59 | 217 | 5.0 | 15.0 | 0.00 | 0.00 | 0.00 | 41 | 1008.5 |
| 20260503182327 | 59 | 160 | 5.0 | 16.0 | 0.00 | 0.00 | 0.00 | 41 | 1008.4 |
| 20260503181824 | 59 | 208 | 5.0 | 16.0 | 0.00 | 0.00 | 0.00 | 41 | 1008.4 |
| 20260503181325 | 59 | 178 | 5.0 | 15.0 | 0.00 | 0.00 | 0.00 | 41 | 1008.5 |
| 20260503180823 | 59 | 261 | 4.0 | 15.0 | 0.00 | 0.00 | 0.00 | 40 | 1008.7 |
| 20260503180320 | 58 | 138 | 4.0 | 13.0 | 0.00 | 0.00 | 0.00 | 43 | 1008.5 |
| 20260503175822 | 58 | 20 | 4.0 | 13.0 | 0.00 | 0.00 | 0.00 | 42 | 1008.8 |
| 20260503175320 | 59 | 178 | 4.0 | 11.0 | 0.00 | 0.00 | 0.00 | 41 | 1008.9 |
| 20260503174820 | 59 | 125 | 4.0 | 12.0 | 0.00 | 0.00 | 0.00 | 44 | 1008.9 |
| 20260503174321 | 59 | 188 | 4.0 | 12.0 | 0.00 | 0.00 | 0.00 | 43 | 1008.9 |
| 20260503173821 | 59 | 239 | 4.0 | 10.0 | 0.00 | 0.00 | 0.00 | 44 | 1009.0 |
| 20260503173320 | 59 | 332 | 4.0 | 11.0 | 0.00 | 0.00 | 0.00 | 44 | 1009.0 |
| 20260503172820 | 59 | 207 | 4.0 | 11.0 | 0.00 | 0.00 | 0.00 | 46 | 1009.2 |
| 20260503172321 | 59 | 207 | 4.0 | 11.0 | 0.00 | 0.00 | 0.00 | 46 | 1009.1 |
| 20260503171814 | 58 | 225 | 5.0 | 18.0 | 0.00 | 0.00 | 0.00 | 45 | 1009.1 |
| 20260503171309 | 58 | 242 | 5.0 | 18.0 | 0.00 | 0.00 | 0.00 | 43 | 1009.2 |
| 20260503170804 | 58 | 191 | 4.0 | 11.0 | 0.00 | 0.00 | 0.00 | 47 | 1009.4 |
| 20260503170256 | 58 | 198 | 4.0 | 11.0 | 0.00 | 0.00 | 0.00 | 45 | 1009.4 |
| 20260503150935 | 53 | 165 | 3.0 | 11.0 | 0.00 | 0.00 | 0.00 | 47 | 1010.3 |
| 20260503150158 | 53 | 274 | 4.0 | 11.0 | 0.00 | 0.00 | 0.00 | 47 | 1010.4 |
| 20260503130946 | 46 | 186 | 3.0 | 7.0 | 0.00 | 0.00 | 0.00 | 51 | 1010.9 |
| 20260503130448 | 45 | 234 | 2.0 | 7.0 | 0.00 | 0.01 | 0.00 | 53 | 1010.9 |
| 20260503110421 | 33 | 161 | 0.0 | 0.0 | 0.00 | 0.01 | 0.00 | 87 | 1010.5 |
| 20260503081350 | 33 | 230 | 0.0 | 0.0 | 0.00 | 0.02 | 0.00 | 89 | 1010.5 |
| 20260503080851 | 33 | 230 | 0.0 | 0.0 | 0.00 | 0.02 | 0.00 | 89 | 1010.4 |
| 20260503080351 | 33 | 230 | 0.0 | 0.0 | 0.00 | 0.02 | 0.00 | 89 | 1010.4 |
| 20260503072845 | 33 | 230 | 0.0 | 0.0 | 0.00 | 0.03 | 0.00 | 89 | 1010.5 |
| 20260503072616 | 33 | 230 | 0.0 | 0.0 | 0.00 | 0.03 | 0.00 | 89 | 1010.4 |
| 20260503071846 | 33 | 230 | 0.0 | 0.0 | 0.00 | 0.03 | 0.00 | 88 | 1010.4 |
| 20260503071345 | 34 | 230 | 0.0 | 0.0 | 0.00 | 0.04 | 0.00 | 88 | 1010.4 |
| 20260503071118 | 34 | 230 | 0.0 | 0.0 | 0.00 | 0.04 | 0.00 | 88 | 1010.4 |
| 20260503070345 | 34 | 230 | 0.0 | 0.0 | 0.00 | 0.04 | 0.00 | 88 | 1010.4 |
| 20260503054804 | 34 | 230 | 0.0 | 0.0 | 0.00 | 0.04 | 0.00 | 84 | 1010.7 |
| 20260503054301 | 34 | 230 | 0.0 | 0.0 | 0.00 | 0.05 | 0.00 | 84 | 1010.8 |
| 20260503054256 | 35 | 230 | 0.0 | 0.0 | 0.00 | 0.05 | 0.00 | 84 | 1010.7 |
| 20260503053246 | 35 | 230 | 0.0 | 0.0 | 0.00 | 0.05 | 0.00 | 83 | 1010.7 |
| 20260503053012 | 35 | 230 | 0.0 | 0.0 | 0.00 | 0.05 | 0.00 | 83 | 1010.7 |
| 20260503052235 | 35 | 230 | 0.0 | 0.0 | 0.00 | 0.05 | 0.00 | 82 | 1010.8 |
| 20260503051728 | 35 | 230 | 0.0 | 0.0 | 0.00 | 0.05 | 0.00 | 82 | 1010.9 |
| 20260503051222 | 35 | 230 | 0.0 | 0.0 | 0.00 | 0.05 | 0.00 | 81 | 1010.8 |
| 20260503050716 | 35 | 230 | 0.0 | 0.0 | 0.00 | 0.05 | 0.00 | 80 | 1010.9 |
| 20260503050436 | 36 | 230 | 0.0 | 0.0 | 0.00 | 0.05 | 0.00 | 79 | 1010.9 |
| 20260503050209 | 35 | 230 | 0.0 | 0.0 | 0.00 | 0.05 | 0.00 | 80 | 1010.9 |
| 20260503045158 | 36 | 230 | 0.0 | 0.0 | 0.00 | 0.05 | 0.00 | 78 | 1011.0 |
| 20260503044652 | 36 | 230 | 0.0 | 0.0 | 0.00 | 0.05 | 0.00 | 78 | 1010.9 |
| 20260503044146 | 36 | 230 | 0.0 | 0.0 | 0.00 | 0.05 | 0.00 | 77 | 1011.0 |
| 20260503044141 | 37 | 230 | 0.0 | 0.0 | 0.00 | 0.06 | 0.00 | 77 | 1011.0 |
| 20260503043134 | 37 | 230 | 0.0 | 0.0 | 0.00 | 0.06 | 0.00 | 76 | 1011.0 |
| 20260503042627 | 37 | 230 | 0.0 | 0.0 | 0.00 | 0.06 | 0.00 | 75 | 1010.9 |
| 20260503042122 | 38 | 230 | 0.0 | 0.0 | 0.00 | 0.06 | 0.00 | 75 | 1011.0 |
| 20260503041616 | 38 | 230 | 0.0 | 0.0 | 0.00 | 0.06 | 0.00 | 74 | 1011.0 |
| 20260503041110 | 38 | 230 | 0.0 | 0.0 | 0.00 | 0.06 | 0.00 | 74 | 1011.0 |
| 20260503040604 | 38 | 230 | 0.0 | 1.0 | 0.00 | 0.06 | 0.00 | 73 | 1011.1 |
| 20260503040058 | 39 | 229 | 0.0 | 1.0 | 0.00 | 0.07 | 0.00 | 73 | 1011.1 |
| 20260503035552 | 39 | 207 | 0.0 | 0.0 | 0.00 | 0.07 | 0.07 | 73 | 1011.1 |
| 20260503035045 | 39 | 207 | 0.0 | 0.0 | 0.00 | 0.07 | 0.07 | 73 | 1011.1 |
| 20260503034810 | 39 | 207 | 0.0 | 0.0 | 0.00 | 0.07 | 0.07 | 73 | 1011.1 |
| 20260503034305 | 40 | 207 | 0.0 | 0.0 | 0.00 | 0.07 | 0.07 | 73 | 1011.2 |
| 20260503033528 | 40 | 207 | 0.0 | 0.0 | 0.00 | 0.07 | 0.07 | 73 | 1011.2 |
| 20260503033022 | 40 | 207 | 0.0 | 0.0 | 0.00 | 0.07 | 0.07 | 73 | 1011.2 |
| 20260503032516 | 40 | 209 | 0.0 | 1.0 | 0.00 | 0.07 | 0.07 | 73 | 1011.2 |
| 20260503032010 | 40 | 209 | 0.0 | 1.0 | 0.00 | 0.07 | 0.07 | 74 | 1011.2 |
| 20260503031736 | 40 | 192 | 0.0 | 0.0 | 0.00 | 0.07 | 0.07 | 74 | 1011.2 |
| 20260503030957 | 40 | 192 | 0.0 | 0.0 | 0.00 | 0.07 | 0.07 | 74 | 1011.2 |
| 20260503030452 | 40 | 192 | 0.0 | 0.0 | 0.00 | 0.07 | 0.07 | 74 | 1011.2 |
| 20260503025946 | 40 | 192 | 0.0 | 0.0 | 0.00 | 0.07 | 0.07 | 74 | 1011.2 |
| 20260503025440 | 40 | 192 | 0.0 | 0.0 | 0.00 | 0.07 | 0.07 | 74 | 1011.2 |
| 20260503025205 | 40 | 192 | 0.0 | 0.0 | 0.00 | 0.07 | 0.07 | 74 | 1011.3 |
| 20260503024429 | 40 | 192 | 0.0 | 0.0 | 0.00 | 0.07 | 0.07 | 74 | 1011.4 |
| 20260503023921 | 40 | 192 | 0.0 | 0.0 | 0.00 | 0.07 | 0.07 | 74 | 1011.5 |
| 20260503023416 | 40 | 192 | 0.0 | 0.0 | 0.00 | 0.07 | 0.07 | 75 | 1011.5 |
| 20260503022910 | 40 | 192 | 0.0 | 0.0 | 0.00 | 0.07 | 0.07 | 75 | 1011.5 |
| 20260503022636 | 40 | 192 | 0.0 | 0.0 | 0.00 | 0.07 | 0.07 | 75 | 1011.5 |
| 20260503021858 | 40 | 192 | 0.0 | 0.0 | 0.00 | 0.07 | 0.07 | 74 | 1011.5 |
| 20260503021352 | 40 | 192 | 0.0 | 0.0 | 0.00 | 0.07 | 0.07 | 74 | 1011.5 |
| 20260503020847 | 40 | 192 | 0.0 | 0.0 | 0.00 | 0.07 | 0.07 | 73 | 1011.5 |
| 20260503020340 | 40 | 192 | 0.0 | 0.0 | 0.00 | 0.07 | 0.07 | 73 | 1011.5 |
| 20260503015836 | 40 | 192 | 0.0 | 0.0 | 0.00 | 0.07 | 0.07 | 72 | 1011.5 |
| 20260503015830 | 40 | 192 | 0.0 | 0.0 | 0.00 | 0.07 | 0.07 | 72 | 1011.5 |
| 20260503014822 | 40 | 192 | 0.0 | 0.0 | 0.00 | 0.07 | 0.07 | 72 | 1011.5 |
| 20260503014316 | 40 | 192 | 0.0 | 0.0 | 0.00 | 0.07 | 0.07 | 72 | 1011.5 |
| 20260503013810 | 40 | 192 | 0.0 | 0.0 | 0.00 | 0.07 | 0.07 | 71 | 1011.5 |
| 20260503013304 | 40 | 192 | 0.0 | 0.0 | 0.00 | 0.07 | 0.07 | 70 | 1011.5 |
| 20260503012758 | 40 | 192 | 0.0 | 0.0 | 0.00 | 0.07 | 0.07 | 71 | 1011.5 |
| 20260503012251 | 40 | 192 | 0.0 | 0.0 | 0.00 | 0.07 | 0.07 | 71 | 1011.5 |
| 20260503012016 | 40 | 192 | 0.0 | 0.0 | 0.00 | 0.07 | 0.07 | 70 | 1011.5 |
| 20260503011748 | 40 | 192 | 0.0 | 0.0 | 0.00 | 0.07 | 0.07 | 69 | 1011.5 |
| 20260503010743 | 40 | 192 | 0.0 | 0.0 | 0.00 | 0.07 | 0.07 | 69 | 1011.4 |
| 20260503010242 | 40 | 192 | 0.0 | 0.0 | 0.00 | 0.07 | 0.07 | 68 | 1011.5 |
| 20260503005738 | 41 | 192 | 0.0 | 0.0 | 0.00 | 0.07 | 0.07 | 68 | 1011.4 |
| 20260503005237 | 41 | 192 | 0.0 | 2.0 | 0.00 | 0.07 | 0.07 | 67 | 1011.4 |
| 20260503004739 | 41 | 192 | 0.0 | 2.0 | 0.00 | 0.07 | 0.07 | 67 | 1011.4 |
| 20260503004510 | 41 | 197 | 0.0 | 0.0 | 0.00 | 0.07 | 0.07 | 67 | 1011.4 |
| 20260503004400 | 41 | 197 | 0.0 | 0.0 | 0.00 | 0.07 | 0.07 | 67 | 1011.3 |
| 20260503003233 | 41 | 197 | 0.0 | 1.0 | 0.00 | 0.07 | 0.07 | 68 | 1011.3 |
| 20260503003005 | 41 | 197 | 0.0 | 1.0 | 0.00 | 0.07 | 0.07 | 66 | 1011.4 |
| 20260503002507 | 41 | 282 | 0.0 | 1.0 | 0.00 | 0.07 | 0.07 | 67 | 1011.4 |
| 20260503001731 | 41 | 217 | 0.0 | 1.0 | 0.00 | 0.07 | 0.07 | 66 | 1011.4 |
| 20260503001238 | 41 | 239 | 0.0 | 3.0 | 0.00 | 0.07 | 0.07 | 65 | 1011.3 |
| 20260503001230 | 41 | 210 | 0.0 | 2.0 | 0.00 | 0.07 | 0.07 | 65 | 1011.3 |
| 20260503001124 | 41 | 221 | 0.0 | 3.0 | 0.00 | 0.07 | 0.07 | 64 | 1011.3 |
| 20260502235730 | 41 | 267 | 0.0 | 2.0 | 0.00 | 0.07 | 0.07 | 65 | 1011.3 |
| 20260502235228 | 42 | 265 | 0.0 | 2.0 | 0.00 | 0.07 | 0.07 | 64 | 1011.3 |
| 20260502234731 | 42 | 355 | 0.0 | 2.0 | 0.00 | 0.07 | 0.07 | 64 | 1011.3 |
| 20260502234231 | 42 | 309 | 1.0 | 3.0 | 0.00 | 0.07 | 0.07 | 64 | 1011.3 |
| 20260502233725 | 42 | 336 | 1.0 | 3.0 | 0.00 | 0.07 | 0.07 | 63 | 1011.2 |
| 20260502233218 | 42 | 283 | 0.0 | 4.0 | 0.00 | 0.07 | 0.07 | 64 | 1011.3 |
| 20260502232713 | 42 | 153 | 1.0 | 4.0 | 0.00 | 0.07 | 0.07 | 65 | 1011.3 |
| 20260502232207 | 42 | 328 | 1.0 | 4.0 | 0.00 | 0.07 | 0.07 | 64 | 1011.3 |
| 20260502231713 | 42 | 314 | 2.0 | 5.0 | 0.00 | 0.07 | 0.07 | 64 | 1011.3 |
| 20260502231706 | 42 | 322 | 2.0 | 5.0 | 0.00 | 0.07 | 0.07 | 64 | 1011.3 |
| 20260502230706 | 42 | 355 | 2.0 | 3.0 | 0.00 | 0.07 | 0.07 | 63 | 1011.3 |
| 20260502230204 | 42 | 333 | 2.0 | 4.0 | 0.00 | 0.07 | 0.07 | 63 | 1011.3 |
| 20260502225705 | 42 | 325 | 2.0 | 4.0 | 0.00 | 0.07 | 0.07 | 63 | 1011.3 |
| 20260502225204 | 42 | 0 | 2.0 | 4.0 | 0.00 | 0.07 | 0.07 | 62 | 1011.3 |
| 20260502224709 | 42 | 319 | 1.0 | 5.0 | 0.00 | 0.07 | 0.07 | 61 | 1011.3 |
| 20260502224702 | 42 | 344 | 1.0 | 5.0 | 0.00 | 0.07 | 0.07 | 62 | 1011.3 |